Year,Month,Day,Hour,Minute,Value (Times are PST for temperature in C)
2020,05,28,00,00,15.30
2020,05,28,00,01,15.20
2020,05,28,00,02,15.20
2020,05,28,00,03,15.20
2020,05,28,00,04,15.10
2020,05,28,00,05,15.10
2020,05,28,00,06,15.00
2020,05,28,00,07,15.00
2020,05,28,00,08,15.00
2020,05,28,00,09,14.90
2020,05,28,00,10,14.90
2020,05,28,00,11,14.90
2020,05,28,00,12,14.90
2020,05,28,00,13,14.80
2020,05,28,00,14,14.80
2020,05,28,00,15,14.80
2020,05,28,00,16,14.80
2020,05,28,00,17,14.80
2020,05,28,00,18,14.80
2020,05,28,00,19,14.80
2020,05,28,00,20,14.80
2020,05,28,00,21,14.80
2020,05,28,00,22,14.90
2020,05,28,00,23,14.90
2020,05,28,00,24,14.90
2020,05,28,00,25,15.00
2020,05,28,00,26,15.00
2020,05,28,00,27,15.00
2020,05,28,00,28,15.00
2020,05,28,00,29,15.00
2020,05,28,00,30,14.90
2020,05,28,00,31,14.90
2020,05,28,00,32,14.90
2020,05,28,00,33,14.90
2020,05,28,00,34,14.90
2020,05,28,00,35,14.90
2020,05,28,00,36,14.80
2020,05,28,00,37,14.80
2020,05,28,00,38,14.80
2020,05,28,00,39,14.80
2020,05,28,00,40,14.80
2020,05,28,00,41,14.80
2020,05,28,00,42,14.80
2020,05,28,00,43,14.80
2020,05,28,00,44,14.80
2020,05,28,00,45,14.80
2020,05,28,00,46,14.80
2020,05,28,00,47,14.80
2020,05,28,00,48,14.80
2020,05,28,00,49,14.80
2020,05,28,00,50,14.90
2020,05,28,00,51,14.90
2020,05,28,00,52,14.90
2020,05,28,00,53,14.90
2020,05,28,00,54,14.80
2020,05,28,00,55,14.80
2020,05,28,00,56,14.80
2020,05,28,00,57,14.80
2020,05,28,00,58,14.70
2020,05,28,00,59,14.70
2020,05,28,01,00,14.60
2020,05,28,01,01,14.60
2020,05,28,01,02,14.60
2020,05,28,01,03,14.50
2020,05,28,01,04,14.50
2020,05,28,01,05,14.40
2020,05,28,01,06,14.40
2020,05,28,01,07,14.40
2020,05,28,01,08,14.40
2020,05,28,01,09,14.40
2020,05,28,01,10,14.40
2020,05,28,01,11,14.40
2020,05,28,01,12,14.40
2020,05,28,01,13,14.30
2020,05,28,01,14,14.30
2020,05,28,01,15,14.30
2020,05,28,01,16,14.40
2020,05,28,01,17,14.40
2020,05,28,01,18,14.40
2020,05,28,01,19,14.40
2020,05,28,01,20,14.40
2020,05,28,01,21,14.40
2020,05,28,01,22,14.40
2020,05,28,01,23,14.40
2020,05,28,01,24,14.40
2020,05,28,01,25,14.40
2020,05,28,01,26,14.40
2020,05,28,01,27,14.40
2020,05,28,01,28,14.40
2020,05,28,01,29,14.40
2020,05,28,01,30,14.40
2020,05,28,01,31,14.40
2020,05,28,01,32,14.40
2020,05,28,01,33,14.40
2020,05,28,01,34,14.40
2020,05,28,01,35,14.40
2020,05,28,01,36,14.30
2020,05,28,01,37,14.30
2020,05,28,01,38,14.30
2020,05,28,01,39,14.30
2020,05,28,01,40,14.30
2020,05,28,01,41,14.30
2020,05,28,01,42,14.30
2020,05,28,01,43,14.30
2020,05,28,01,44,14.30
2020,05,28,01,45,14.20
2020,05,28,01,46,14.20
2020,05,28,01,47,14.20
2020,05,28,01,48,14.20
2020,05,28,01,49,14.20
2020,05,28,01,50,14.20
2020,05,28,01,51,14.20
2020,05,28,01,52,14.10
2020,05,28,01,53,14.20
2020,05,28,01,54,14.10
2020,05,28,01,55,14.10
2020,05,28,01,56,14.10
2020,05,28,01,57,14.10
2020,05,28,01,58,14.10
2020,05,28,01,59,14.10
2020,05,28,02,00,14.10
2020,05,28,02,01,14.10
2020,05,28,02,02,14.10
2020,05,28,02,03,14.00
2020,05,28,02,04,14.00
2020,05,28,02,05,14.00
2020,05,28,02,06,14.00
2020,05,28,02,07,14.00
2020,05,28,02,08,13.90
2020,05,28,02,09,13.90
2020,05,28,02,10,13.90
2020,05,28,02,11,13.90
2020,05,28,02,12,13.90
2020,05,28,02,13,13.80
2020,05,28,02,14,13.80
2020,05,28,02,15,13.80
2020,05,28,02,16,13.80
2020,05,28,02,17,13.80
2020,05,28,02,18,13.80
2020,05,28,02,19,13.80
2020,05,28,02,20,13.80
2020,05,28,02,21,13.80
2020,05,28,02,22,13.80
2020,05,28,02,23,13.80
2020,05,28,02,24,13.80
2020,05,28,02,25,13.80
2020,05,28,02,26,13.80
2020,05,28,02,27,13.80
2020,05,28,02,28,13.80
2020,05,28,02,29,13.80
2020,05,28,02,30,13.80
2020,05,28,02,31,13.80
2020,05,28,02,32,13.80
2020,05,28,02,33,13.80
2020,05,28,02,34,13.80
2020,05,28,02,35,13.80
2020,05,28,02,36,13.80
2020,05,28,02,37,13.80
2020,05,28,02,38,13.80
2020,05,28,02,39,13.90
2020,05,28,02,40,13.90
2020,05,28,02,41,13.90
2020,05,28,02,42,13.90
2020,05,28,02,43,13.90
2020,05,28,02,44,13.90
2020,05,28,02,45,14.00
2020,05,28,02,46,14.00
2020,05,28,02,47,14.00
2020,05,28,02,48,14.00
2020,05,28,02,49,14.00
2020,05,28,02,50,14.00
2020,05,28,02,51,14.00
2020,05,28,02,52,14.00
2020,05,28,02,53,14.00
2020,05,28,02,54,14.00
2020,05,28,02,55,14.00
2020,05,28,02,56,14.10
2020,05,28,02,57,14.10
2020,05,28,02,58,14.10
2020,05,28,02,59,14.10
2020,05,28,03,00,14.00
2020,05,28,03,01,14.00
2020,05,28,03,02,14.00
2020,05,28,03,03,14.10
2020,05,28,03,04,14.00
2020,05,28,03,05,14.00
2020,05,28,03,06,14.00
2020,05,28,03,07,14.10
2020,05,28,03,08,14.10
2020,05,28,03,09,14.10
2020,05,28,03,10,14.10
2020,05,28,03,11,14.10
2020,05,28,03,12,14.20
2020,05,28,03,13,14.10
2020,05,28,03,14,14.10
2020,05,28,03,15,14.10
2020,05,28,03,16,14.10
2020,05,28,03,17,14.10
2020,05,28,03,18,14.10
2020,05,28,03,19,14.10
2020,05,28,03,20,14.10
2020,05,28,03,21,14.10
2020,05,28,03,22,14.10
2020,05,28,03,23,14.10
2020,05,28,03,24,14.10
2020,05,28,03,25,14.10
2020,05,28,03,26,14.10
2020,05,28,03,27,14.10
2020,05,28,03,28,14.10
2020,05,28,03,29,14.00
2020,05,28,03,30,14.00
2020,05,28,03,31,13.90
2020,05,28,03,32,13.90
2020,05,28,03,33,13.90
2020,05,28,03,34,13.90
2020,05,28,03,35,13.90
2020,05,28,03,36,13.90
2020,05,28,03,37,13.90
2020,05,28,03,38,13.90
2020,05,28,03,39,13.90
2020,05,28,03,40,13.90
2020,05,28,03,41,13.90
2020,05,28,03,42,13.90
2020,05,28,03,43,13.90
2020,05,28,03,44,13.90
2020,05,28,03,45,13.90
2020,05,28,03,46,13.90
2020,05,28,03,47,13.90
2020,05,28,03,48,13.80
2020,05,28,03,49,13.80
2020,05,28,03,50,13.80
2020,05,28,03,51,13.80
2020,05,28,03,52,13.80
2020,05,28,03,53,13.70
2020,05,28,03,54,13.70
2020,05,28,03,55,13.60
2020,05,28,03,56,13.60
2020,05,28,03,57,13.60
2020,05,28,03,58,13.50
2020,05,28,03,59,13.50
2020,05,28,04,00,13.40
2020,05,28,04,01,13.40
2020,05,28,04,02,13.40
2020,05,28,04,03,13.30
2020,05,28,04,04,13.30
2020,05,28,04,05,13.30
2020,05,28,04,06,13.30
2020,05,28,04,07,13.30
2020,05,28,04,08,13.20
2020,05,28,04,09,13.20
2020,05,28,04,10,13.20
2020,05,28,04,11,13.20
2020,05,28,04,12,13.20
2020,05,28,04,13,13.10
2020,05,28,04,14,13.10
2020,05,28,04,15,13.10
2020,05,28,04,16,13.10
2020,05,28,04,17,13.10
2020,05,28,04,18,13.10
2020,05,28,04,19,13.10
2020,05,28,04,20,13.00
2020,05,28,04,21,13.00
2020,05,28,04,22,13.00
2020,05,28,04,23,13.00
2020,05,28,04,24,13.00
2020,05,28,04,25,13.00
2020,05,28,04,26,13.10
2020,05,28,04,27,13.10
2020,05,28,04,28,13.10
2020,05,28,04,29,13.10
2020,05,28,04,30,13.10
2020,05,28,04,31,13.10
2020,05,28,04,32,13.20
2020,05,28,04,33,13.20
2020,05,28,04,34,13.20
2020,05,28,04,35,13.20
2020,05,28,04,36,13.20
2020,05,28,04,37,13.20
2020,05,28,04,38,13.30
2020,05,28,04,39,13.20
2020,05,28,04,40,13.20
2020,05,28,04,41,13.10
2020,05,28,04,42,13.00
2020,05,28,04,43,13.00
2020,05,28,04,44,13.00
2020,05,28,04,45,12.90
2020,05,28,04,46,12.90
2020,05,28,04,47,12.90
2020,05,28,04,48,12.90
2020,05,28,04,49,13.00
2020,05,28,04,50,13.10
2020,05,28,04,51,13.30
2020,05,28,04,52,13.50
2020,05,28,04,53,13.60
2020,05,28,04,54,13.80
2020,05,28,04,55,13.90
2020,05,28,04,56,13.90
2020,05,28,04,57,14.00
2020,05,28,04,58,14.10
2020,05,28,04,59,14.10
2020,05,28,05,00,14.20
2020,05,28,05,01,14.20
2020,05,28,05,02,14.20
2020,05,28,05,03,14.20
2020,05,28,05,04,14.20
2020,05,28,05,05,14.20
2020,05,28,05,06,14.20
2020,05,28,05,07,14.20
2020,05,28,05,08,14.20
2020,05,28,05,09,14.20
2020,05,28,05,10,14.20
2020,05,28,05,11,14.20
2020,05,28,05,12,14.30
2020,05,28,05,13,14.30
2020,05,28,05,14,14.30
2020,05,28,05,15,14.30
2020,05,28,05,16,14.30
2020,05,28,05,17,14.40
2020,05,28,05,18,14.40
2020,05,28,05,19,14.40
2020,05,28,05,20,14.40
2020,05,28,05,21,14.40
2020,05,28,05,22,14.30
2020,05,28,05,23,14.30
2020,05,28,05,24,14.30
2020,05,28,05,25,14.30
2020,05,28,05,26,14.30
2020,05,28,05,27,14.30
2020,05,28,05,28,14.30
2020,05,28,05,29,14.30
2020,05,28,05,30,14.30
2020,05,28,05,31,14.30
2020,05,28,05,32,14.30
2020,05,28,05,33,14.30
2020,05,28,05,34,14.30
2020,05,28,05,35,14.30
2020,05,28,05,36,14.20
2020,05,28,05,37,14.20
2020,05,28,05,38,14.20
2020,05,28,05,39,14.20
2020,05,28,05,40,14.20
2020,05,28,05,41,14.20
2020,05,28,05,42,14.10
2020,05,28,05,43,14.10
2020,05,28,05,44,14.10
2020,05,28,05,45,14.10
2020,05,28,05,46,14.10
2020,05,28,05,47,14.10
2020,05,28,05,48,14.10
2020,05,28,05,49,14.20
2020,05,28,05,50,14.20
2020,05,28,05,51,14.20
2020,05,28,05,52,14.20
2020,05,28,05,53,14.30
2020,05,28,05,54,14.30
2020,05,28,05,55,14.30
2020,05,28,05,56,14.30
2020,05,28,05,57,14.30
2020,05,28,05,58,14.30
2020,05,28,05,59,14.30
2020,05,28,06,00,14.30
2020,05,28,06,01,14.30
2020,05,28,06,02,14.30
2020,05,28,06,03,14.30
2020,05,28,06,04,14.30
2020,05,28,06,05,14.30
2020,05,28,06,06,14.30
2020,05,28,06,07,14.30
2020,05,28,06,08,14.30
2020,05,28,06,09,14.30
2020,05,28,06,10,14.30
2020,05,28,06,11,14.30
2020,05,28,06,12,14.30
2020,05,28,06,13,14.30
2020,05,28,06,14,14.30
2020,05,28,06,15,14.30
2020,05,28,06,16,14.30
2020,05,28,06,17,14.30
2020,05,28,06,18,14.30
2020,05,28,06,19,14.30
2020,05,28,06,20,14.30
2020,05,28,06,21,14.30
2020,05,28,06,22,14.30
2020,05,28,06,23,14.30
2020,05,28,06,24,14.30
2020,05,28,06,25,14.30
2020,05,28,06,26,14.30
2020,05,28,06,27,14.30
2020,05,28,06,28,14.30
2020,05,28,06,29,14.30
2020,05,28,06,30,14.30
2020,05,28,06,31,14.30
2020,05,28,06,32,14.30
2020,05,28,06,33,14.30
2020,05,28,06,34,14.30
2020,05,28,06,35,14.30
2020,05,28,06,36,14.30
2020,05,28,06,37,14.30
2020,05,28,06,38,14.40
2020,05,28,06,39,14.40
2020,05,28,06,40,14.40
2020,05,28,06,41,14.40
2020,05,28,06,42,14.40
2020,05,28,06,43,14.40
2020,05,28,06,44,14.40
2020,05,28,06,45,14.40
2020,05,28,06,46,14.40
2020,05,28,06,47,14.30
2020,05,28,06,48,14.30
2020,05,28,06,49,14.30
2020,05,28,06,50,14.20
2020,05,28,06,51,14.20
2020,05,28,06,52,14.20
2020,05,28,06,53,14.20
2020,05,28,06,54,14.20
2020,05,28,06,55,14.30
2020,05,28,06,56,14.30
2020,05,28,06,57,14.30
2020,05,28,06,58,14.30
2020,05,28,06,59,14.30
2020,05,28,07,00,14.30
2020,05,28,07,01,14.30
2020,05,28,07,02,14.30
2020,05,28,07,03,14.30
2020,05,28,07,04,14.40
2020,05,28,07,05,14.40
2020,05,28,07,06,14.40
2020,05,28,07,07,14.40
2020,05,28,07,08,14.40
2020,05,28,07,09,14.40
2020,05,28,07,10,14.40
2020,05,28,07,11,14.40
2020,05,28,07,12,14.40
2020,05,28,07,13,14.40
2020,05,28,07,14,14.40
2020,05,28,07,15,14.40
2020,05,28,07,16,14.40
2020,05,28,07,17,14.40
2020,05,28,07,18,14.50
2020,05,28,07,19,14.50
2020,05,28,07,20,14.50
2020,05,28,07,21,14.50
2020,05,28,07,22,14.50
2020,05,28,07,23,14.50
2020,05,28,07,24,14.60
2020,05,28,07,25,14.60
2020,05,28,07,26,14.60
2020,05,28,07,27,14.70
2020,05,28,07,28,14.70
2020,05,28,07,29,14.70
2020,05,28,07,30,14.70
2020,05,28,07,31,14.70
2020,05,28,07,32,14.70
2020,05,28,07,33,14.70
2020,05,28,07,34,14.70
2020,05,28,07,35,14.80
2020,05,28,07,36,14.80
2020,05,28,07,37,14.80
2020,05,28,07,38,14.80
2020,05,28,07,39,14.80
2020,05,28,07,40,14.80
2020,05,28,07,41,14.80
2020,05,28,07,42,14.80
2020,05,28,07,43,14.80
2020,05,28,07,44,14.80
2020,05,28,07,45,14.80
2020,05,28,07,46,14.80
2020,05,28,07,47,14.80
2020,05,28,07,48,14.80
2020,05,28,07,49,14.90
2020,05,28,07,50,14.90
2020,05,28,07,51,14.90
2020,05,28,07,52,14.90
2020,05,28,07,53,14.90
2020,05,28,07,54,14.90
2020,05,28,07,55,15.00
2020,05,28,07,56,15.00
2020,05,28,07,57,15.00
2020,05,28,07,58,15.00
2020,05,28,07,59,15.00
2020,05,28,08,00,15.00
2020,05,28,08,01,15.00
2020,05,28,08,02,15.00
2020,05,28,08,03,15.00
2020,05,28,08,04,15.00
2020,05,28,08,05,15.00
2020,05,28,08,06,15.00
2020,05,28,08,07,15.00
2020,05,28,08,08,15.00
2020,05,28,08,09,15.00
2020,05,28,08,10,15.00
2020,05,28,08,11,15.00
2020,05,28,08,12,15.00
2020,05,28,08,13,15.00
2020,05,28,08,14,15.00
2020,05,28,08,15,15.00
2020,05,28,08,16,15.00
2020,05,28,08,17,15.10
2020,05,28,08,18,15.10
2020,05,28,08,19,15.10
2020,05,28,08,20,15.10
2020,05,28,08,21,15.10
2020,05,28,08,22,15.10
2020,05,28,08,23,15.10
2020,05,28,08,24,15.10
2020,05,28,08,25,15.10
2020,05,28,08,26,15.10
2020,05,28,08,27,15.10
2020,05,28,08,28,15.10
2020,05,28,08,29,15.10
2020,05,28,08,30,15.10
2020,05,28,08,31,15.20
2020,05,28,08,32,15.20
2020,05,28,08,33,15.20
2020,05,28,08,34,15.30
2020,05,28,08,35,15.30
2020,05,28,08,36,15.30
2020,05,28,08,37,15.30
2020,05,28,08,38,15.30
2020,05,28,08,39,15.40
2020,05,28,08,40,15.40
2020,05,28,08,41,15.40
2020,05,28,08,42,15.40
2020,05,28,08,43,15.50
2020,05,28,08,44,15.50
2020,05,28,08,45,15.60
2020,05,28,08,46,15.60
2020,05,28,08,47,15.60
2020,05,28,08,48,15.70
2020,05,28,08,49,15.70
2020,05,28,08,50,15.70
2020,05,28,08,51,15.70
2020,05,28,08,52,15.80
2020,05,28,08,53,15.80
2020,05,28,08,54,15.80
2020,05,28,08,55,15.90
2020,05,28,08,56,15.90
2020,05,28,08,57,15.90
2020,05,28,08,58,15.90
2020,05,28,08,59,15.90
2020,05,28,09,00,16.00
2020,05,28,09,01,16.00
2020,05,28,09,02,16.00
2020,05,28,09,03,16.10
2020,05,28,09,04,16.10
2020,05,28,09,05,16.20
2020,05,28,09,06,16.20
2020,05,28,09,07,16.30
2020,05,28,09,08,16.30
2020,05,28,09,09,16.40
2020,05,28,09,10,16.50
2020,05,28,09,11,16.50
2020,05,28,09,12,16.60
2020,05,28,09,13,16.60
2020,05,28,09,14,16.70
2020,05,28,09,15,16.70
2020,05,28,09,16,16.80
2020,05,28,09,17,16.90
2020,05,28,09,18,17.00
2020,05,28,09,19,17.00
2020,05,28,09,20,17.10
2020,05,28,09,21,17.20
2020,05,28,09,22,17.20
2020,05,28,09,23,17.30
2020,05,28,09,24,17.30
2020,05,28,09,25,17.30
2020,05,28,09,26,17.40
2020,05,28,09,27,17.40
2020,05,28,09,28,17.40
2020,05,28,09,29,17.50
2020,05,28,09,30,17.50
2020,05,28,09,31,17.50
2020,05,28,09,32,17.50
2020,05,28,09,33,17.60
2020,05,28,09,34,17.70
2020,05,28,09,35,17.70
2020,05,28,09,36,17.80
2020,05,28,09,37,17.90
2020,05,28,09,38,17.90
2020,05,28,09,39,18.00
2020,05,28,09,40,18.00
2020,05,28,09,41,18.10
2020,05,28,09,42,18.20
2020,05,28,09,43,18.30
2020,05,28,09,44,18.30
2020,05,28,09,45,18.30
2020,05,28,09,46,18.40
2020,05,28,09,47,18.40
2020,05,28,09,48,18.40
2020,05,28,09,49,18.40
2020,05,28,09,50,18.40
2020,05,28,09,51,18.50
2020,05,28,09,52,18.50
2020,05,28,09,53,18.60
2020,05,28,09,54,18.60
2020,05,28,09,55,18.60
2020,05,28,09,56,18.70
2020,05,28,09,57,18.70
2020,05,28,09,58,18.80
2020,05,28,09,59,18.90
2020,05,28,10,00,19.00
2020,05,28,10,01,19.10
2020,05,28,10,02,19.10
2020,05,28,10,03,19.20
2020,05,28,10,04,19.20
2020,05,28,10,05,19.20
2020,05,28,10,06,19.30
2020,05,28,10,07,19.30
2020,05,28,10,08,19.20
2020,05,28,10,09,19.20
2020,05,28,10,10,19.20
2020,05,28,10,11,19.20
2020,05,28,10,12,19.20
2020,05,28,10,13,19.20
2020,05,28,10,14,19.30
2020,05,28,10,15,19.40
2020,05,28,10,16,19.40
2020,05,28,10,17,19.40
2020,05,28,10,18,19.50
2020,05,28,10,19,19.50
2020,05,28,10,20,19.50
2020,05,28,10,21,19.60
2020,05,28,10,22,19.70
2020,05,28,10,23,19.80
2020,05,28,10,24,19.80
2020,05,28,10,25,19.70
2020,05,28,10,26,19.60
2020,05,28,10,27,19.50
2020,05,28,10,28,19.40
2020,05,28,10,29,19.30
2020,05,28,10,30,19.30
2020,05,28,10,31,19.30
2020,05,28,10,32,19.30
2020,05,28,10,33,19.40
2020,05,28,10,34,19.50
2020,05,28,10,35,19.60
2020,05,28,10,36,19.60
2020,05,28,10,37,19.50
2020,05,28,10,38,19.50
2020,05,28,10,39,19.50
2020,05,28,10,40,19.60
2020,05,28,10,41,19.70
2020,05,28,10,42,19.70
2020,05,28,10,43,19.80
2020,05,28,10,44,19.80
2020,05,28,10,45,19.90
2020,05,28,10,46,19.90
2020,05,28,10,47,19.90
2020,05,28,10,48,19.80
2020,05,28,10,49,19.70
2020,05,28,10,50,19.70
2020,05,28,10,51,19.70
2020,05,28,10,52,19.80
2020,05,28,10,53,19.80
2020,05,28,10,54,19.80
2020,05,28,10,55,19.70
2020,05,28,10,56,19.70
2020,05,28,10,57,19.60
2020,05,28,10,58,19.60
2020,05,28,10,59,19.60
2020,05,28,11,00,19.60
2020,05,28,11,01,19.70
2020,05,28,11,02,19.70
2020,05,28,11,03,19.70
2020,05,28,11,04,19.70
2020,05,28,11,05,19.70
2020,05,28,11,06,19.70
2020,05,28,11,07,19.70
2020,05,28,11,08,19.70
2020,05,28,11,09,19.70
2020,05,28,11,10,19.70
2020,05,28,11,11,19.70
2020,05,28,11,12,19.80
2020,05,28,11,13,19.80
2020,05,28,11,14,19.80
2020,05,28,11,15,19.80
2020,05,28,11,16,19.90
2020,05,28,11,17,19.90
2020,05,28,11,18,20.00
2020,05,28,11,19,20.10
2020,05,28,11,20,20.30
2020,05,28,11,21,20.40
2020,05,28,11,22,20.40
2020,05,28,11,23,20.40
2020,05,28,11,24,20.50
2020,05,28,11,25,20.60
2020,05,28,11,26,20.70
2020,05,28,11,27,20.90
2020,05,28,11,28,21.10
2020,05,28,11,29,21.20
2020,05,28,11,30,21.30
2020,05,28,11,31,21.40
2020,05,28,11,32,21.40
2020,05,28,11,33,21.40
2020,05,28,11,34,21.40
2020,05,28,11,35,21.40
2020,05,28,11,36,21.40
2020,05,28,11,37,21.50
2020,05,28,11,38,21.50
2020,05,28,11,39,21.40
2020,05,28,11,40,21.30
2020,05,28,11,41,21.30
2020,05,28,11,42,21.30
2020,05,28,11,43,21.30
2020,05,28,11,44,21.20
2020,05,28,11,45,21.20
2020,05,28,11,46,21.20
2020,05,28,11,47,21.20
2020,05,28,11,48,21.30
2020,05,28,11,49,21.30
2020,05,28,11,50,21.30
2020,05,28,11,51,21.40
2020,05,28,11,52,21.60
2020,05,28,11,53,21.80
2020,05,28,11,54,21.90
2020,05,28,11,55,21.90
2020,05,28,11,56,22.00
2020,05,28,11,57,22.10
2020,05,28,11,58,22.20
2020,05,28,11,59,22.30
2020,05,28,12,00,22.20
2020,05,28,12,01,22.10
2020,05,28,12,02,21.90
2020,05,28,12,03,21.80
2020,05,28,12,04,21.70
2020,05,28,12,05,21.60
2020,05,28,12,06,21.60
2020,05,28,12,07,21.60
2020,05,28,12,08,21.60
2020,05,28,12,09,21.60
2020,05,28,12,10,21.70
2020,05,28,12,11,21.70
2020,05,28,12,12,21.70
2020,05,28,12,13,21.60
2020,05,28,12,14,21.60
2020,05,28,12,15,21.70
2020,05,28,12,16,21.80
2020,05,28,12,17,21.70
2020,05,28,12,18,21.80
2020,05,28,12,19,21.80
2020,05,28,12,20,21.80
2020,05,28,12,21,21.90
2020,05,28,12,22,22.00
2020,05,28,12,23,22.00
2020,05,28,12,24,22.10
2020,05,28,12,25,22.10
2020,05,28,12,26,22.20
2020,05,28,12,27,22.30
2020,05,28,12,28,22.30
2020,05,28,12,29,22.20
2020,05,28,12,30,22.30
2020,05,28,12,31,22.30
2020,05,28,12,32,22.20
2020,05,28,12,33,22.30
2020,05,28,12,34,22.30
2020,05,28,12,35,22.40
2020,05,28,12,36,22.40
2020,05,28,12,37,22.40
2020,05,28,12,38,22.40
2020,05,28,12,39,22.40
2020,05,28,12,40,22.40
2020,05,28,12,41,22.30
2020,05,28,12,42,22.40
2020,05,28,12,43,22.40
2020,05,28,12,44,22.60
2020,05,28,12,45,22.70
2020,05,28,12,46,22.90
2020,05,28,12,47,23.00
2020,05,28,12,48,23.00
2020,05,28,12,49,22.90
2020,05,28,12,50,22.90
2020,05,28,12,51,22.90
2020,05,28,12,52,22.90
2020,05,28,12,53,22.90
2020,05,28,12,54,23.00
2020,05,28,12,55,23.00
2020,05,28,12,56,23.00
2020,05,28,12,57,23.00
2020,05,28,12,58,23.10
2020,05,28,12,59,23.10
2020,05,28,13,00,23.10
2020,05,28,13,01,23.10
2020,05,28,13,02,23.00
2020,05,28,13,03,22.90
2020,05,28,13,04,22.80
2020,05,28,13,05,22.70
2020,05,28,13,06,22.70
2020,05,28,13,07,22.60
2020,05,28,13,08,22.60
2020,05,28,13,09,22.60
2020,05,28,13,10,22.70
2020,05,28,13,11,22.70
2020,05,28,13,12,22.70
2020,05,28,13,13,22.70
2020,05,28,13,14,22.80
2020,05,28,13,15,22.80
2020,05,28,13,16,22.80
2020,05,28,13,17,22.80
2020,05,28,13,18,22.70
2020,05,28,13,19,22.70
2020,05,28,13,20,22.70
2020,05,28,13,21,22.70
2020,05,28,13,22,22.70
2020,05,28,13,23,22.70
2020,05,28,13,24,22.80
2020,05,28,13,25,22.80
2020,05,28,13,26,22.80
2020,05,28,13,27,22.80
2020,05,28,13,28,22.80
2020,05,28,13,29,22.80
2020,05,28,13,30,22.90
2020,05,28,13,31,23.00
2020,05,28,13,32,23.00
2020,05,28,13,33,23.10
2020,05,28,13,34,23.00
2020,05,28,13,35,23.00
2020,05,28,13,36,23.00
2020,05,28,13,37,23.00
2020,05,28,13,38,23.00
2020,05,28,13,39,23.00
2020,05,28,13,40,23.00
2020,05,28,13,41,23.00
2020,05,28,13,42,23.00
2020,05,28,13,43,22.90
2020,05,28,13,44,23.00
2020,05,28,13,45,23.10
2020,05,28,13,46,23.20
2020,05,28,13,47,23.20
2020,05,28,13,48,23.20
2020,05,28,13,49,23.20
2020,05,28,13,50,23.20
2020,05,28,13,51,23.10
2020,05,28,13,52,23.10
2020,05,28,13,53,23.00
2020,05,28,13,54,23.00
2020,05,28,13,55,23.00
2020,05,28,13,56,23.00
2020,05,28,13,57,23.00
2020,05,28,13,58,23.00
2020,05,28,13,59,23.00
2020,05,28,14,00,23.00
2020,05,28,14,01,23.10
2020,05,28,14,02,23.10
2020,05,28,14,03,23.20
2020,05,28,14,04,23.20
2020,05,28,14,05,23.20
2020,05,28,14,06,23.20
2020,05,28,14,07,23.20
2020,05,28,14,08,23.20
2020,05,28,14,09,23.20
2020,05,28,14,10,23.20
2020,05,28,14,11,23.30
2020,05,28,14,12,23.30
2020,05,28,14,13,23.30
2020,05,28,14,14,23.40
2020,05,28,14,15,23.40
2020,05,28,14,16,23.40
2020,05,28,14,17,23.40
2020,05,28,14,18,23.40
2020,05,28,14,19,23.40
2020,05,28,14,20,23.40
2020,05,28,14,21,23.30
2020,05,28,14,22,23.40
2020,05,28,14,23,23.40
2020,05,28,14,24,23.40
2020,05,28,14,25,23.40
2020,05,28,14,26,23.40
2020,05,28,14,27,23.50
2020,05,28,14,28,23.50
2020,05,28,14,29,23.50
2020,05,28,14,30,23.60
2020,05,28,14,31,23.50
2020,05,28,14,32,23.50
2020,05,28,14,33,23.50
2020,05,28,14,34,23.50
2020,05,28,14,35,23.50
2020,05,28,14,36,23.50
2020,05,28,14,37,23.50
2020,05,28,14,38,23.50
2020,05,28,14,39,23.60
2020,05,28,14,40,23.60
2020,05,28,14,41,23.70
2020,05,28,14,42,23.80
2020,05,28,14,43,23.90
2020,05,28,14,44,24.00
2020,05,28,14,45,24.10
2020,05,28,14,46,24.00
2020,05,28,14,47,24.00
2020,05,28,14,48,24.00
2020,05,28,14,49,24.00
2020,05,28,14,50,23.90
2020,05,28,14,51,23.90
2020,05,28,14,52,23.90
2020,05,28,14,53,23.90
2020,05,28,14,54,23.90
2020,05,28,14,55,23.90
2020,05,28,14,56,23.80
2020,05,28,14,57,23.80
2020,05,28,14,58,23.80
2020,05,28,14,59,23.90
2020,05,28,15,00,24.00
2020,05,28,15,01,24.00
2020,05,28,15,02,24.10
2020,05,28,15,03,24.10
2020,05,28,15,04,24.10
2020,05,28,15,05,24.00
2020,05,28,15,06,24.00
2020,05,28,15,07,24.00
2020,05,28,15,08,23.90
2020,05,28,15,09,23.90
2020,05,28,15,10,23.90
2020,05,28,15,11,23.90
2020,05,28,15,12,23.90
2020,05,28,15,13,23.90
2020,05,28,15,14,23.90
2020,05,28,15,15,24.00
2020,05,28,15,16,24.00
2020,05,28,15,17,24.00
2020,05,28,15,18,23.90
2020,05,28,15,19,24.00
2020,05,28,15,20,24.10
2020,05,28,15,21,24.10
2020,05,28,15,22,24.10
2020,05,28,15,23,24.10
2020,05,28,15,24,24.00
2020,05,28,15,25,23.90
2020,05,28,15,26,23.80
2020,05,28,15,27,23.70
2020,05,28,15,28,23.60
2020,05,28,15,29,23.40
2020,05,28,15,30,23.40
2020,05,28,15,31,23.50
2020,05,28,15,32,23.40
2020,05,28,15,33,23.40
2020,05,28,15,34,23.40
2020,05,28,15,35,23.30
2020,05,28,15,36,23.40
2020,05,28,15,37,23.40
2020,05,28,15,38,23.40
2020,05,28,15,39,23.40
2020,05,28,15,40,23.50
2020,05,28,15,41,23.60
2020,05,28,15,42,23.70
2020,05,28,15,43,23.70
2020,05,28,15,44,23.60
2020,05,28,15,45,23.60
2020,05,28,15,46,23.50
2020,05,28,15,47,23.40
2020,05,28,15,48,23.30
2020,05,28,15,49,23.40
2020,05,28,15,50,23.40
2020,05,28,15,51,23.50
2020,05,28,15,52,23.50
2020,05,28,15,53,23.60
2020,05,28,15,54,23.60
2020,05,28,15,55,23.70
2020,05,28,15,56,23.80
2020,05,28,15,57,23.80
2020,05,28,15,58,23.80
2020,05,28,15,59,23.90
2020,05,28,16,00,24.00
2020,05,28,16,01,24.00
2020,05,28,16,02,24.10
2020,05,28,16,03,24.20
2020,05,28,16,04,24.20
2020,05,28,16,05,24.20
2020,05,28,16,06,24.20
2020,05,28,16,07,24.10
2020,05,28,16,08,24.10
2020,05,28,16,09,24.00
2020,05,28,16,10,24.00
2020,05,28,16,11,23.90
2020,05,28,16,12,23.80
2020,05,28,16,13,23.80
2020,05,28,16,14,23.90
2020,05,28,16,15,23.90
2020,05,28,16,16,23.90
2020,05,28,16,17,23.90
2020,05,28,16,18,23.90
2020,05,28,16,19,23.90
2020,05,28,16,20,23.90
2020,05,28,16,21,24.00
2020,05,28,16,22,23.90
2020,05,28,16,23,23.90
2020,05,28,16,24,23.90
2020,05,28,16,25,23.90
2020,05,28,16,26,24.00
2020,05,28,16,27,24.00
2020,05,28,16,28,24.10
2020,05,28,16,29,24.10
2020,05,28,16,30,24.00
2020,05,28,16,31,24.00
2020,05,28,16,32,24.00
2020,05,28,16,33,24.00
2020,05,28,16,34,24.00
2020,05,28,16,35,24.00
2020,05,28,16,36,23.90
2020,05,28,16,37,24.00
2020,05,28,16,38,24.00
2020,05,28,16,39,24.00
2020,05,28,16,40,24.10
2020,05,28,16,41,24.10
2020,05,28,16,42,24.20
2020,05,28,16,43,24.30
2020,05,28,16,44,24.30
2020,05,28,16,45,24.20
2020,05,28,16,46,24.20
2020,05,28,16,47,24.10
2020,05,28,16,48,24.10
2020,05,28,16,49,24.10
2020,05,28,16,50,24.10
2020,05,28,16,51,24.10
2020,05,28,16,52,24.10
2020,05,28,16,53,24.10
2020,05,28,16,54,24.10
2020,05,28,16,55,24.00
2020,05,28,16,56,24.00
2020,05,28,16,57,24.00
2020,05,28,16,58,24.10
2020,05,28,16,59,24.10
2020,05,28,17,00,24.20
2020,05,28,17,01,24.20
2020,05,28,17,02,24.30
2020,05,28,17,03,24.30
2020,05,28,17,04,24.30
2020,05,28,17,05,24.30
2020,05,28,17,06,24.30
2020,05,28,17,07,24.30
2020,05,28,17,08,24.20
2020,05,28,17,09,24.10
2020,05,28,17,10,24.10
2020,05,28,17,11,24.00
2020,05,28,17,12,24.00
2020,05,28,17,13,23.90
2020,05,28,17,14,23.90
2020,05,28,17,15,23.90
2020,05,28,17,16,23.90
2020,05,28,17,17,23.90
2020,05,28,17,18,23.90
2020,05,28,17,19,23.90